Pittsburgh, PA

1:48 AM EST on December 07, 2019 (GMT -0500)
Pittsburgh International

Weather History for KPIT - October, 2019

Change the Weather History Date:

Sunday, October 6, 2019

  Actual Average Record
Temperature  
Mean Temperature 60 °F 56 °F  
Max Temperature 66 °F 66 °F 89 °F (1900)
Min Temperature 54 °F 46 °F 27 °F (1965)
Degree Days  
Heating Degree Days 4 10  
Month to date heating degree days 23 53  
Since 1 July heating degree days 31 167  
Cooling Degree Days 0 1  
Month to date cooling degree days 37 6  
Year to date cooling degree days 934 734  
Growing Degree Days 10 (Base 50)    
Moisture  
Dew Point 57 °F    
Average Humidity 82    
Maximum Humidity 96    
Minimum Humidity 67    
Precipitation  
Precipitation 0.34 in 0.07 in 0.86 in (1959)
Month to date precipitation 0.82 0.44  
Year to date precipitation 40.91 30.26  
Sea Level Pressure  
Sea Level Pressure 30.11 in    
Wind  
Wind Speed 5 mph ()    
Max Wind Speed 14 mph    
Max Gust Speed 17 mph    
Visibility 9.1 miles    
Events Rain    
T = Trace of Precipitation, MM = Missing Value Source: Averaged Metar Reports

Daily Weather History Graph

Daily Weather History Graph

Search for Another Location

Airport or City:

Astronomy

Oct. 06, 2019 Rise Set
Actual Time 7:22 AM EDT 6:55 PM EDT
Civil Twilight 6:54 AM EDT 7:22 PM EDT
Nautical Twilight 6:23 AM EDT 7:54 PM EDT
Astronomical Twilight 5:51 AM EDT 8:25 PM EDT
Moon 3:34 PM EDT (10/6) 12:17 AM EDT (10/6)
Length of Visible Light 12h 27m
Length of Day
11h 33m
First Quarter, 59% of the Moon is Illuminated
Oct 6
First Quarter
Oct 13
Full
Oct 21
Last Quarter
Oct 27
New
Nov 4
First Quarter

Hourly Weather History & Observations

Time (EDT) Temp. Dew Point Humidity Pressure Visibility Wind Dir Wind Speed Gust Speed Precip Events Conditions
12:51 AM 57.0 °F 46.0 °F 67% 30.11 in 10.0 mi SSE 5.8 mph - N/A   Mostly Cloudy
1:51 AM 57.0 °F 46.0 °F 67% 30.10 in 10.0 mi SE 6.9 mph - N/A   Mostly Cloudy
2:51 AM 55.9 °F 46.9 °F 72% 30.11 in 10.0 mi SE 5.8 mph - N/A   Mostly Cloudy
3:51 AM 55.0 °F 46.9 °F 74% 30.07 in 10.0 mi SE 5.8 mph - N/A   Partly Cloudy
4:51 AM 55.0 °F 46.9 °F 74% 30.08 in 10.0 mi SSE 4.6 mph - N/A   Partly Cloudy
5:51 AM 55.0 °F 48.0 °F 77% 30.09 in 10.0 mi Calm Calm - N/A   Scattered Clouds
6:51 AM 55.0 °F 48.0 °F 77% 30.10 in 10.0 mi Calm Calm - N/A   Overcast
7:51 AM 55.9 °F 48.9 °F 77% 30.12 in 10.0 mi SE 4.6 mph - N/A   Overcast
8:32 AM 57.0 °F 51.1 °F 81% 30.11 in 10.0 mi SSE 3.5 mph - N/A   Overcast
8:51 AM 57.9 °F 51.1 °F 78% 30.13 in 10.0 mi Calm Calm - N/A   Overcast
9:27 AM 59.0 °F 51.1 °F 75% 30.11 in 10.0 mi Calm Calm - N/A   Overcast
9:51 AM 60.1 °F 52.0 °F 75% 30.13 in 10.0 mi Calm Calm - N/A   Overcast
10:51 AM 64.9 °F 57.0 °F 75% 30.13 in 10.0 mi SW 8.1 mph - 0.00 in   Overcast
11:51 AM 66.9 °F 57.0 °F 70% 30.14 in 10.0 mi SSW 9.2 mph - N/A   Overcast
12:51 PM 66.0 °F 59.0 °F 78% 30.15 in 10.0 mi South 3.5 mph - 0.00 in   Overcast
1:45 PM 64.4 °F 60.8 °F 88% 30.13 in 10.0 mi South 5.8 mph - 0.01 in   Overcast
1:51 PM 64.9 °F 61.0 °F 87% 30.14 in 10.0 mi South 4.6 mph - 0.01 in   Overcast
2:51 PM 66.9 °F 61.0 °F 81% 30.13 in 7.0 mi SW 5.8 mph - 0.00 in Rain Light Rain
3:51 PM 66.9 °F 62.1 °F 84% 30.12 in 10.0 mi SSW 9.2 mph - 0.01 in   Overcast
4:32 PM 66.9 °F 62.1 °F 84% 30.11 in 10.0 mi SSW 8.1 mph - N/A   Overcast
4:51 PM 66.9 °F 62.1 °F 84% 30.12 in 10.0 mi SSW 9.2 mph - N/A   Overcast
5:33 PM 66.9 °F 62.1 °F 84% 30.11 in 10.0 mi SSW 9.2 mph - N/A   Overcast
5:51 PM 66.9 °F 62.1 °F 84% 30.12 in 10.0 mi SSW 9.2 mph - N/A   Overcast
6:10 PM 66.9 °F 62.1 °F 84% 30.10 in 10.0 mi SSW 8.1 mph - N/A   Overcast
6:51 PM 66.0 °F 62.1 °F 87% 30.11 in 10.0 mi South 5.8 mph - N/A   Overcast
7:32 PM 66.0 °F 62.1 °F 87% 30.10 in 10.0 mi SSW 5.8 mph - N/A   Overcast
7:51 PM 66.0 °F 62.1 °F 87% 30.11 in 10.0 mi South 5.8 mph - 0.00 in Rain Light Rain
8:08 PM 66.0 °F 62.1 °F 87% 30.10 in 10.0 mi South 4.6 mph - 0.00 in   Overcast
8:51 PM 64.9 °F 63.0 °F 93% 30.12 in 8.0 mi Calm Calm - 0.01 in Rain Light Rain
9:51 PM 64.9 °F 63.0 °F 93% 30.13 in 8.0 mi South 4.6 mph - 0.00 in Rain Light Rain
10:51 PM 64.9 °F 62.1 °F 90% 30.12 in 6.0 mi SW 4.6 mph - 0.01 in Rain Rain
11:05 PM 64.0 °F 63.0 °F 96% 30.11 in 5.0 mi SW 4.6 mph - 0.02 in Rain Rain
11:25 PM 64.0 °F 62.1 °F 93% 30.10 in 3.0 mi West 8.1 mph - 0.05 in Rain Rain
11:51 PM 64.0 °F 62.1 °F 93% 30.11 in 3.0 mi WNW 6.9 mph - 0.13 in Rain Light Rain